EW4719 Weather Reports


Display with metric or nautical units.
time (UTC)temp
F
wind
direction
speed
MPH
gust
MPH
rain 1hr
in
rain 24hr
in
rain mn
in
humidity
%
barometer
mb
20260505013130 44 261 3.0 11.0 0.00 0.00 0.00 86 1014.2
20260505011506 44 224 3.0 9.0 0.00 0.00 0.00 85 1014.2
20260505010009 44 224 4.0 8.0 0.00 0.00 0.00 85 1014.2
20260505004545 44 254 4.0 10.0 0.00 0.00 0.00 85 1014.2
20260505003105 44 276 4.0 11.0 0.00 0.00 0.00 85 1014.2
20260505001554 44 326 5.0 12.0 0.00 0.00 0.00 84 1014.2
20260505000126 44 238 4.0 9.0 0.00 0.00 0.00 84 1014.3
20260504234527 44 283 4.0 11.0 0.00 0.00 0.00 83 1014.4
20260504233054 44 270 4.0 10.0 0.00 0.00 0.00 83 1014.5
20260504231538 45 252 3.0 8.0 0.00 0.00 0.00 82 1014.6
20260504230023 45 257 4.0 11.0 0.00 0.00 0.00 81 1014.5
20260504224545 45 252 5.0 11.0 0.00 0.00 0.00 81 1014.5
20260504223111 46 252 4.0 9.0 0.00 0.00 0.00 80 1014.6
20260504221609 46 250 3.0 7.0 0.00 0.00 0.00 79 1014.7
20260504220125 46 263 2.0 8.0 0.00 0.00 0.00 78 1014.6
20260504214525 47 250 3.0 5.0 0.00 0.00 0.00 77 1014.7
20260504213056 47 258 3.0 9.0 0.00 0.00 0.00 77 1014.7
20260504211559 48 280 4.0 8.0 0.00 0.00 0.00 77 1014.7
20260504210120 48 285 3.0 8.0 0.00 0.00 0.00 76 1014.8
20260504204526 48 246 2.0 10.0 0.00 0.00 0.00 76 1014.9
20260504203103 49 278 3.0 10.0 0.00 0.00 0.00 76 1014.8
20260504201621 49 290 4.0 9.0 0.00 0.00 0.00 75 1014.8
20260504200121 49 275 2.0 11.0 0.00 0.00 0.00 75 1014.7
20260504194533 50 231 3.0 9.0 0.00 0.00 0.00 74 1014.6
20260504193118 50 311 3.0 12.0 0.00 0.00 0.00 73 1014.5
20260504191608 51 245 4.0 10.0 0.00 0.00 0.00 72 1014.4
20260504190129 51 300 5.0 12.0 0.00 0.00 0.00 70 1014.3
20260504184554 52 250 4.0 12.0 0.00 0.00 0.00 69 1014.2
20260504183104 52 251 4.0 15.0 0.00 0.00 0.00 68 1014.2
20260504181601 53 276 4.0 13.0 0.00 0.00 0.00 68 1014.2
20260504180130 53 264 5.0 13.0 0.00 0.00 0.00 65 1014.0
20260504174530 54 298 4.0 9.0 0.00 0.00 0.00 62 1014.1
20260504173048 55 238 3.0 10.0 0.00 0.00 0.00 59 1014.1
20260504171544 56 216 4.0 13.0 0.00 0.00 0.00 57 1014.1
20260504170108 56 236 4.0 11.0 0.00 0.00 0.00 57 1014.1
20260504160105 56 320 6.0 15.0 0.00 0.00 0.00 56 1014.3
20260504140128 58 342 3.0 11.0 0.00 0.00 0.00 56 1014.5
20260504120131 54 249 5.0 16.0 0.00 0.01 0.00 62 1014.7
20260504110115 53 258 6.0 15.0 0.00 0.01 0.00 69 1014.6
20260504100122 53 249 5.0 12.0 0.00 0.01 0.00 73 1014.6
20260504081549 50 294 4.0 12.0 0.00 0.05 0.00 85 1014.7
20260504070118 47 240 3.0 8.0 0.00 0.06 0.00 91 1014.5
20260504050114 45 67 0.0 0.0 0.00 0.12 0.00 94 1014.3
20260504044504 44 67 0.0 0.0 0.00 0.17 0.00 94 1014.3
20260504043003 44 123 0.0 0.0 0.00 0.17 0.00 94 1014.4
20260504041534 44 123 0.0 0.0 0.00 0.17 0.00 94 1014.4
20260504034551 44 123 0.0 0.0 0.00 0.22 0.00 93 1014.6
20260504033118 44 123 0.0 0.0 0.00 0.22 0.00 93 1014.6
20260504031528 44 123 0.0 0.0 0.00 0.22 0.00 93 1014.6
20260504030059 44 123 0.0 0.0 0.00 0.22 0.00 93 1014.4
20260504024601 44 123 0.0 0.0 0.00 0.25 0.00 93 1014.6
20260504023110 44 123 0.0 0.0 0.00 0.25 0.00 93 1014.6
20260504021519 44 123 0.0 0.0 0.00 0.25 0.00 93 1014.5
20260504020132 44 123 0.0 0.0 0.00 0.25 0.00 93 1014.5
20260504014536 44 123 0.0 0.0 0.00 0.31 0.00 93 1014.5